When you browse on this site, cookies collect data to enhance your experience and personalize the content and advertising you see.
Visit our Privacy Policy to learn more. By continuing to use the site, you agree to this use of cookies and data.
  • In United Kingdom
  • List of Countries
  • For 7 days
  • Water Temperature
  • Weather Map
  • Weather Widgets
  • user-avatar
    Login

    Hourly Weather Solden

    Today, 22 August, Thursday

    Time Temperature Precipitation Wind Pressure Humidity
    00:00 +8°C° 0.1 mm 1 mps 589 mmHg 90%
    01:00 +8°C° 0.1 mm 1 mps 589 mmHg 90%
    02:00 +8°C° 0 mm 1 mps 588 mmHg 89%
    03:00 +8°C° 0 mm 1 mps 588 mmHg 89%
    04:00 +8°C° 0 mm 1 mps 588 mmHg 89%
    05:00 +9°C° 0 mm 1 mps 589 mmHg 86%
    06:00 +9°C° 0 mm 0 mps 589 mmHg 84%
    07:00 +9°C° 0 mm 0 mps 589 mmHg 82%
    08:00 +11°C° 0 mm 0 mps 590 mmHg 75%
    09:00 +14°C° 0 mm 1 mps 591 mmHg 68%
    10:00 +15°C° 0 mm 1 mps 592 mmHg 61%
    11:00 +16°C° 0.7 mm 1 mps 592 mmHg 61%
    12:00 +16°C° 0.7 mm 1 mps 592 mmHg 61%
    13:00 +18°C° 0.7 mm 1 mps 592 mmHg 61%
    14:00 +16°C° 1.1 mm 1 mps 592 mmHg 63%
    15:00 +16°C° 1.1 mm 1 mps 592 mmHg 65%
    16:00 +16°C° 1.1 mm 1 mps 591 mmHg 67%
    17:00 +14°C° 0.7 mm 1 mps 591 mmHg 73%
    18:00 +13°C° 0.7 mm 1 mps 590 mmHg 79%
    19:00 +11°C° 0.7 mm 1 mps 589 mmHg 85%
    20:00 +10°C° 0.5 mm 1 mps 589 mmHg 86%
    21:00 +9°C° 0.5 mm 1 mps 589 mmHg 87%
    22:00 +8°C° 0.5 mm 1 mps 589 mmHg 88%
    23:00 +8°C° 0.1 mm 1 mps 589 mmHg 88%

    Tomorrow, 23 August, Friday

    Time Temperature Precipitation Wind Pressure Humidity
    00:00 +8°C° 0.1 mm 1 mps 588 mmHg 87%
    01:00 +7°C° 0.1 mm 1 mps 588 mmHg 87%
    02:00 +7°C° 0.1 mm 1 mps 588 mmHg 87%
    03:00 +7°C° 0.1 mm 1 mps 588 mmHg 88%
    04:00 +7°C° 0.1 mm 1 mps 587 mmHg 88%
    05:00 +8°C° 0.1 mm 1 mps 588 mmHg 86%
    06:00 +8°C° 0.1 mm 0 mps 589 mmHg 85%
    07:00 +9°C° 0.1 mm 0 mps 589 mmHg 83%
    08:00 +12°C° 0.2 mm 1 mps 590 mmHg 78%
    09:00 +13°C° 0.2 mm 1 mps 591 mmHg 73%
    10:00 +14°C° 0.2 mm 1 mps 591 mmHg 68%
    11:00 +15°C° 0.7 mm 1 mps 591 mmHg 68%
    12:00 +15°C° 0.7 mm 1 mps 591 mmHg 68%
    13:00 +15°C° 0.7 mm 1 mps 591 mmHg 68%
    14:00 +15°C° 0.7 mm 1 mps 591 mmHg 69%
    15:00 +15°C° 0.7 mm 1 mps 591 mmHg 70%
    16:00 +15°C° 0.7 mm 1 mps 590 mmHg 71%
    17:00 +13°C° 0.5 mm 1 mps 590 mmHg 77%
    18:00 +11°C° 0.5 mm 0 mps 589 mmHg 82%
    19:00 +10°C° 0.5 mm 0 mps 588 mmHg 87%
    20:00 +9°C° 0.2 mm 0 mps 588 mmHg 87%
    21:00 +8°C° 0.2 mm 0 mps 588 mmHg 87%
    22:00 +9°C° 0.2 mm 1 mps 588 mmHg 87%
    23:00 +8°C° 0 mm 1 mps 588 mmHg 87%

    Day after tomorrow, 24 August, Saturday

    Time Temperature Precipitation Wind Pressure Humidity
    00:00 +8°C° 0 mm 1 mps 587 mmHg 87%
    01:00 +7°C° 0 mm 1 mps 587 mmHg 88%
    02:00 +7°C° 0 mm 1 mps 587 mmHg 88%
    03:00 +7°C° 0 mm 1 mps 586 mmHg 88%
    04:00 +6°C° 0 mm 1 mps 586 mmHg 88%
    05:00 +8°C° 0 mm 1 mps 587 mmHg 85%
    06:00 +9°C° 0 mm 1 mps 587 mmHg 83%
    07:00 +9°C° 0 mm 0 mps 588 mmHg 80%
    08:00 +12°C° 0 mm 1 mps 589 mmHg 73%
    09:00 +14°C° 0 mm 1 mps 590 mmHg 65%
    10:00 +16°C° 0 mm 1 mps 591 mmHg 57%
    11:00 +18°C° 0.3 mm 1 mps 591 mmHg 55%
    12:00 +18°C° 0.3 mm 1 mps 591 mmHg 54%
    13:00 +18°C° 0.3 mm 2 mps 591 mmHg 52%
    14:00 +18°C° 0.7 mm 1 mps 591 mmHg 56%
    15:00 +18°C° 0.7 mm 1 mps 590 mmHg 59%
    16:00 +16°C° 0.7 mm 1 mps 590 mmHg 62%
    17:00 +15°C° 0.8 mm 1 mps 589 mmHg 70%
    18:00 +13°C° 0.8 mm 1 mps 588 mmHg 78%
    19:00 +10°C° 0.8 mm 0 mps 587 mmHg 86%
    20:00 +11°C° 0.8 mm 1 mps 588 mmHg 87%
    21:00 +10°C° 0.8 mm 1 mps 588 mmHg 87%
    22:00 +10°C° 0.8 mm 1 mps 588 mmHg 88%
    23:00 +9°C° 0.1 mm 1 mps 587 mmHg 88%

    25 August, Sunday

    Time Temperature Precipitation Wind Pressure Humidity
    00:00 +9°C° 0.1 mm 1 mps 587 mmHg 89%
    01:00 +8°C° 0.1 mm 1 mps 586 mmHg 89%
    02:00 +8°C° 0 mm 1 mps 586 mmHg 89%
    03:00 +8°C° 0 mm 1 mps 586 mmHg 90%
    04:00 +7°C° 0 mm 1 mps 586 mmHg 90%
    05:00 +7°C° 0 mm 0 mps 586 mmHg 88%
    06:00 +9°C° 0 mm 0 mps 587 mmHg 86%
    07:00 +10°C° 0 mm 0 mps 588 mmHg 84%
    08:00 +11°C° 0.3 mm 0 mps 588 mmHg 79%
    09:00 +14°C° 0.3 mm 1 mps 589 mmHg 74%
    10:00 +15°C° 0.3 mm 1 mps 590 mmHg 69%
    11:00 +16°C° 1.4 mm 1 mps 590 mmHg 68%
    12:00 +16°C° 1.4 mm 1 mps 590 mmHg 66%
    13:00 +18°C° 1.4 mm 1 mps 590 mmHg 65%
    14:00 +16°C° 1.2 mm 1 mps 590 mmHg 68%
    15:00 +16°C° 1.2 mm 1 mps 589 mmHg 71%
    16:00 +15°C° 1.2 mm 1 mps 589 mmHg 73%
    17:00 +14°C° 0.4 mm 1 mps 588 mmHg 78%
    18:00 +12°C° 0.4 mm 1 mps 588 mmHg 82%
    19:00 +11°C° 0.4 mm 1 mps 587 mmHg 87%
    20:00 +10°C° 0.3 mm 1 mps 587 mmHg 87%
    21:00 +9°C° 0.3 mm 1 mps 587 mmHg 87%
    22:00 +8°C° 0.3 mm 1 mps 587 mmHg 87%
    23:00 +8°C° 0 mm 1 mps 587 mmHg 87%

    26 August, Monday

    Time Temperature Precipitation Wind Pressure Humidity
    00:00 +8°C° 0 mm 1 mps 587 mmHg 87%
    01:00 +8°C° 0 mm 1 mps 587 mmHg 87%
    02:00 +7°C° 0 mm 1 mps 586 mmHg 87%
    03:00 +7°C° 0 mm 1 mps 586 mmHg 87%
    04:00 +7°C° 0 mm 1 mps 586 mmHg 87%
    05:00 +8°C° 0 mm 1 mps 587 mmHg 85%
    06:00 +10°C° 0 mm 1 mps 587 mmHg 83%
    07:00 +10°C° 0 mm 0 mps 588 mmHg 82%
    08:00 +13°C° 0 mm 1 mps 589 mmHg 74%
    09:00 +15°C° 0 mm 1 mps 590 mmHg 66%
    10:00 +18°C° 0 mm 1 mps 591 mmHg 58%
    11:00 +18°C° 0.5 mm 1 mps 591 mmHg 57%
    12:00 +19°C° 0.5 mm 1 mps 591 mmHg 57%
    13:00 +19°C° 0.5 mm 1 mps 591 mmHg 57%
    14:00 +19°C° 1 mm 1 mps 591 mmHg 58%
    15:00 +18°C° 1 mm 1 mps 591 mmHg 60%
    16:00 +18°C° 1 mm 1 mps 590 mmHg 61%
    17:00 +15°C° 0.6 mm 1 mps 590 mmHg 68%
    18:00 +14°C° 0.6 mm 1 mps 589 mmHg 75%
    19:00 +11°C° 0.6 mm 0 mps 588 mmHg 82%
    20:00 +10°C° 0.3 mm 0 mps 588 mmHg 83%
    21:00 +10°C° 0.3 mm 1 mps 588 mmHg 84%
    22:00 +10°C° 0.3 mm 1 mps 588 mmHg 85%
    23:00 +9°C° 0.2 mm 1 mps 587 mmHg 86%

    27 August, Tuesday

    Time Temperature Precipitation Wind Pressure Humidity
    00:00 +9°C° 0.2 mm 1 mps 587 mmHg 87%
    01:00 +9°C° 0.2 mm 1 mps 587 mmHg 87%
    02:00 +8°C° 0.1 mm 1 mps 587 mmHg 87%
    03:00 +8°C° 0.1 mm 1 mps 586 mmHg 88%
    04:00 +8°C° 0.1 mm 1 mps 586 mmHg 88%
    05:00 +9°C° 0 mm 1 mps 587 mmHg 86%
    06:00 +10°C° 0 mm 1 mps 587 mmHg 85%
    07:00 +10°C° 0 mm 0 mps 588 mmHg 83%
    08:00 +13°C° 0.1 mm 1 mps 589 mmHg 77%
    09:00 +14°C° 0.1 mm 1 mps 589 mmHg 70%
    10:00 +16°C° 0.1 mm 1 mps 590 mmHg 63%
    11:00 +18°C° 0.7 mm 1 mps 590 mmHg 61%
    12:00 +17°C° 0.7 mm 2 mps 590 mmHg 59%
    13:00 +18°C° 0.7 mm 2 mps 590 mmHg 57%
    14:00 +17°C° 1 mm 2 mps 590 mmHg 60%
    15:00 +17°C° 1 mm 2 mps 589 mmHg 63%
    16:00 +17°C° 1 mm 2 mps 589 mmHg 66%
    17:00 +15°C° 1 mm 1 mps 588 mmHg 73%
    18:00 +13°C° 1 mm 1 mps 587 mmHg 81%
    19:00 +11°C° 1 mm 1 mps 586 mmHg 88%
    20:00 +11°C° 0.5 mm 1 mps 586 mmHg 89%
    21:00 +10°C° 0.5 mm 1 mps 586 mmHg 89%
    22:00 +9°C° 0.5 mm 1 mps 586 mmHg 90%
    23:00 +9°C° 0 mm 1 mps 586 mmHg 90%
    Show more